[[{"header":{"parameterUnit":"m.s-1","parameterCategory":1,"la1":30.2991,"la2":30.254,"lo1":-89.0895,"lo2":-89.0444,"dy":0.0017,"dx":0.0017,"nx":28,"ny":28,"refTime":"2023-11-12T09:00:00:Z","depth":0,"parameterNumber":2,"parameterNumberName":"U-component_of_WINDS"},"data":[0,0,0,0,0,0,0,0,0,0,0,0,0,0,0,0,0,0,0,0,0,0,0,0,0,0,0,0,0,0,0,0,0,0,0,0,0,0,0,0,0,0,0,0,0,0,0,0,0,0,0,0,0,0,0,0,0,0,-3.7736,-3.7737,0,-3.7802,-3.7803,-3.7803,-3.7715,-3.7712,-3.7709,-3.7706,-3.7774,-3.7778,-3.7783,0,0,0,0,0,0,0,0,0,0,0,0,0,-3.7536,-3.754,-3.7736,-3.7737,-3.7738,-3.7802,-3.7803,-3.7803,-3.7716,-3.7712,-3.7708,-3.7704,-3.7772,-3.7778,-3.7783,0,0,0,0,0,0,0,0,0,0,0,0,0,-3.7615,-3.7542,-3.7736,-3.7702,-3.7699,-3.7802,-3.7803,-3.7804,-3.7716,-3.7712,-3.7707,-3.7702,-3.777,-3.7777,-3.7784,-3.7923,0,0,-3.7806,-3.7809,0,0,0,0,0,0,0,0,-3.761,-3.7622,-3.7706,-3.7704,-3.7702,-3.7745,-3.7757,-3.7844,-3.7718,-3.771,-3.7706,-3.77,-3.7768,-3.7775,-3.7798,-3.7927,-3.7929,-3.7807,-3.7811,-3.7814,-3.7816,0,0,0,0,0,0,0,-3.7605,-3.7619,-3.7762,-3.7707,-3.7705,-3.7683,-3.7689,-3.7773,-3.7765,-3.771,-3.7704,-3.7713,-3.7766,-3.7791,-3.7799,-3.793,-3.7806,-3.7813,-3.7817,-3.782,-3.8178,-3.8183,0,0,0,0,0,0,-3.7603,-3.7615,-3.776,-3.7764,-3.7643,-3.7691,-3.7697,-3.7736,-3.7764,-3.7763,-3.7717,-3.7709,-3.7781,-3.7791,-3.7801,-3.7967,-3.7814,-3.7821,-3.7825,-3.8173,-3.8179,-3.8185,0,0,0,0,0,0,-3.7599,-3.7617,-3.7757,-3.7688,-3.7704,-3.7699,-3.7744,-3.774,-3.7765,-3.7769,-3.7767,-3.7744,-3.7778,-3.7791,-3.7894,-3.7968,-3.7824,-3.783,-3.8167,-3.8175,-3.8182,-3.83,0,0,0,0,0,0,-3.7594,-3.7616,-3.7669,-3.769,-3.7708,-3.785,-3.7748,-3.7745,-3.7778,-3.7767,-3.7794,-3.7794,-3.7775,-3.7884,-3.7901,-3.7975,-3.7836,-3.816,-3.817,-3.8179,-3.829,-3.8311,-3.8329,0,0,0,0,0,-3.7587,-3.77,-3.7672,-3.769,-3.7774,-3.7854,-3.7865,-3.7841,-3.7784,-3.7837,-3.784,-3.7793,-3.7957,-3.7895,-3.7914,-3.7991,-3.8155,-3.8167,-3.8179,-3.8281,-3.8307,-3.8329,0,0,0,0,0,0,-3.7688,-3.7702,-3.7672,-3.7794,-3.7824,-3.7839,-3.7906,-3.7869,-3.7916,-3.7904,-3.7873,-3.788,-3.799,-3.8,-3.7931,-3.8128,-3.8047,-3.8063,-3.8118,-3.8143,-3.8162,-3.8158,-3.7842,0,0,0,0,0,-3.7725,-3.7788,-3.7797,-3.7904,-3.792,-3.7911,-3.7945,-3.7924,-3.7953,-3.7965,-3.7975,-3.8006,-3.8064,-3.8104,-3.8157,-3.829,-3.8295,-3.8352,-3.8372,-3.8389,-3.8404,-3.8476,-3.8502,-3.8223,-3.8223,-3.8223,0,0,-3.7801,-3.7816,-3.7858,-3.7925,-3.7945,-3.8012,-3.7922,-3.7996,-3.8046,-3.7977,-3.8075,-3.8083,-3.8115,-3.8234,-3.8287,-3.8247,-3.8482,-3.8404,-3.8417,-3.8423,-3.8491,-3.8517,-3.8541,-3.8231,-3.823,-3.8229,0,0,-3.7974,-3.7992,-3.8084,-3.8106,-3.8138,-3.8131,-3.8153,-3.8174,-3.8177,-3.8275,-3.8225,-3.8283,-3.8384,-3.841,-3.8436,-3.8619,-3.8579,-3.8637,-3.8742,-3.8813,-3.8835,-3.8855,-3.8922,-3.8946,-3.8652,-3.8652,-3.8652,0,-3.8065,-3.8165,-3.8135,-3.8215,-3.8246,-3.8185,-3.8278,-3.8301,-3.835,-3.8373,-3.8326,-3.8452,-3.847,-3.8594,-3.8639,-3.8662,-3.8687,-3.8635,-3.8834,-3.8853,-3.8871,-3.8935,-3.896,-3.8659,-3.8658,-3.8658,-3.8657,0,-3.8276,-3.8345,-3.8415,-3.8464,-3.8503,-3.8588,-3.8573,-3.8616,-3.8591,-3.8589,-3.869,-3.8708,-3.8766,-3.8793,-3.877,-3.8915,-3.8889,-3.8839,-3.8757,-3.8905,-3.8965,-3.8989,-3.8669,-3.8667,-3.8665,-3.8663,0,0,-3.8516,-3.8547,-3.8574,-3.8596,-3.8627,-3.868,-3.8763,-3.8819,-3.8857,-3.8892,-3.8962,-3.9048,-3.9002,-3.9032,-3.9011,-3.9073,-3.9219,-3.9015,-3.9015,-3.9054,-3.9383,-3.9422,-3.9451,-3.9191,-3.9196,-3.9199,-3.938,0,-3.8692,-3.8835,-3.8812,-3.8951,-3.9016,-3.8959,-3.9032,-3.9059,-3.9059,-3.9114,-3.9113,-3.9176,-3.911,-3.9128,-3.9186,-3.9189,-3.9285,-3.9175,-3.9258,-3.9261,-3.9254,-3.9481,-3.9523,-3.9693,-3.9403,-3.9407,-3.941,0,-3.8916,-3.8959,-3.9106,-3.9127,-3.9153,-3.9219,-3.9269,-3.9321,-3.9351,-3.9347,-3.938,-3.9348,-3.9431,-3.9346,-3.9462,-3.9388,-3.9419,-3.9426,-3.9432,-3.9441,-3.9346,-3.9498,-3.9746,-3.9773,-3.9446,-3.9443,-3.9441,0,-3.9079,-3.9174,-3.9275,-3.9295,-3.9322,-3.9369,-3.9383,-3.9407,-3.9443,-3.9486,-3.9509,-3.9561,-3.959,-3.9632,-3.9615,-3.9554,-3.9734,-3.9647,-3.9734,-3.9735,-3.9777,-3.9775,-4.0036,-3.9794,-3.9793,-3.9793,-3.9792,0,-3.9279,-3.9371,-3.9349,-3.9411,-3.9513,-3.9484,-3.9586,-3.9592,-3.9615,-3.9678,-3.963,-3.969,-3.9663,-3.9721,-3.9708,-3.9806,-3.9819,-3.9819,-3.9815,-3.9825,-3.9825,-3.9847,-3.9836,-3.98,-3.9798,-3.9797,-3.9796,0,-3.948,-3.9468,-3.9574,-3.9591,-3.9597,-3.9672,-3.9686,-3.9745,-3.974,-3.9821,-3.9838,-3.9832,-3.9898,-3.9884,-3.9956,-3.9947,-4.0072,-4.0052,-4.0062,-4.0058,-4.0147,-4.014,-4.0433,-4.0471,-4.0203,-4.0205,-4.0207,0,-3.961,-3.9679,-3.9704,-3.9742,-3.9759,-3.9822,-3.9858,-3.9832,-3.9871,-3.991,-3.9964,-4.0026,-4.0074,-4.0182,-4.0185,-4.024,-4.0223,-4.0321,-4.0231,-4.0239,-4.0227,-4.0224,-4.0232,-4.034,-4.0343,-4.0346,-4.0348,0,-3.9841,-3.9832,-3.9885,-3.9938,-3.9982,-4.0021,-4.0056,-4.009,-4.0067,-4.0114,-4.0181,-4.0218,-4.0292,-4.0355,-4.0406,-4.042,-4.0382,-4.0376,-4.04,-4.0412,-4.0416,-4.0417,-4.0114,-4.037,-4.0368,-4.0366,-4.0365,-4.0364,-4.0012,-4.0072,-4.0099,-4.016,-4.0183,-4.0217,-4.0273,-4.0276,-4.0332,-4.039,-4.0371,-4.0448,-4.0476,-4.0541,-4.0561,-4.0621,-4.0584,-4.0617,-4.0626,-4.0636,-4.0648,-4.0404,-4.0629,-4.0629,-4.0628,-4.0628,-4.0627,0,-4.0243,-4.0257,-4.0314,-4.0365,-4.0413,-4.0371,-4.0408,-4.0451,-4.0519,-4.0548,-4.0597,-4.0674,-4.0735,-4.0742,-4.0799,-4.0846,-4.0829,-4.0862,-4.0859,-4.0863,-4.0676,-4.0651,-4.0874,-4.0874,-4.0874,-4.0874,-4.0874,-4.0874,-4.0369,-4.0469,-4.0463,-4.0574,-4.0587,-4.0662,-4.0687,-4.0719,-4.0742,-4.083,-4.088,-4.0884,-4.0905,-4.0963,-4.1017,-4.1017,-4.1041,-4.1081,-4.1075,-4.0901,-4.0876,-4.0853,-4.083,-4.1086,-4.1086,-4.1258,-4.1259,-4.1261]},{"header":{"parameterUnit":"m.s-1","parameterCategory":1,"la1":30.2991,"la2":30.254,"lo1":-89.0895,"lo2":-89.0444,"dy":0.0017,"dx":0.0017,"nx":28,"ny":28,"refTime":"2023-11-12T09:00:00:Z","depth":0,"parameterNumber":3,"parameterNumberName":"V-component_of_WINDS"},"data":[0,0,0,0,0,0,0,0,0,0,0,0,0,0,0,0,0,0,0,0,0,0,0,0,0,0,0,0,0,0,0,0,0,0,0,0,0,0,0,0,0,0,0,0,0,0,0,0,0,0,0,0,0,0,0,0,0,0,-4.4582,-4.4582,0,-4.4577,-4.4577,-4.4577,-4.452,-4.4518,-4.4517,-4.4516,-4.4511,-4.4512,-4.4513,0,0,0,0,0,0,0,0,0,0,0,0,0,-4.4543,-4.4544,-4.4582,-4.4582,-4.4582,-4.4577,-4.4577,-4.4577,-4.452,-4.4518,-4.4517,-4.4515,-4.451,-4.4512,-4.4513,0,0,0,0,0,0,0,0,0,0,0,0,0,-4.4551,-4.4544,-4.4582,-4.4553,-4.4551,-4.4577,-4.4577,-4.4577,-4.4521,-4.4518,-4.4516,-4.4514,-4.451,-4.4512,-4.4514,-4.4568,0,0,-4.4519,-4.452,0,0,0,0,0,0,0,0,-4.4551,-4.4553,-4.4558,-4.4555,-4.4552,-4.4547,-4.4561,-4.4574,-4.4521,-4.4532,-4.4516,-4.4513,-4.4525,-4.4525,-4.4529,-4.4568,-4.4567,-4.4519,-4.452,-4.4521,-4.4522,0,0,0,0,0,0,0,-4.455,-4.4553,-4.458,-4.4558,-4.4555,-4.454,-4.4539,-4.4563,-4.454,-4.4531,-4.4527,-4.4527,-4.4523,-4.4527,-4.4528,-4.4567,-4.4519,-4.4521,-4.4522,-4.4523,-4.4649,-4.4651,0,0,0,0,0,0,-4.4554,-4.4553,-4.4581,-4.458,-4.4546,-4.4543,-4.4542,-4.4551,-4.454,-4.4536,-4.4529,-4.4524,-4.4525,-4.4526,-4.4528,-4.459,-4.4521,-4.4523,-4.4524,-4.4647,-4.465,-4.4652,0,0,0,0,0,0,-4.4553,-4.4557,-4.4581,-4.4565,-4.4567,-4.4546,-4.4557,-4.4552,-4.4556,-4.4538,-4.4534,-4.4537,-4.4524,-4.4525,-4.4558,-4.4589,-4.4524,-4.4525,-4.4644,-4.4648,-4.4651,-4.4715,0,0,0,0,0,0,-4.4552,-4.4557,-4.4578,-4.4566,-4.4568,-4.4611,-4.4559,-4.4553,-4.456,-4.4554,-4.4545,-4.4542,-4.4522,-4.4556,-4.456,-4.459,-4.4527,-4.4641,-4.4646,-4.465,-4.471,-4.472,-4.4729,0,0,0,0,0,-4.4551,-4.4596,-4.4579,-4.4583,-4.4593,-4.4613,-4.4614,-4.459,-4.4562,-4.4583,-4.4571,-4.4542,-4.4585,-4.4559,-4.4564,-4.4595,-4.4639,-4.4645,-4.4649,-4.4706,-4.4718,-4.4729,0,0,0,0,0,0,-4.4612,-4.4594,-4.4575,-4.4618,-4.4617,-4.4603,-4.4628,-4.4604,-4.4612,-4.4606,-4.4576,-4.4575,-4.4612,-4.4607,-4.4579,-4.4647,-4.4607,-4.4613,-4.4649,-4.466,-4.4669,-4.467,-4.4528,0,0,0,0,0,-4.4631,-4.4648,-4.4631,-4.4671,-4.4671,-4.465,-4.4658,-4.4639,-4.4638,-4.4637,-4.4628,-4.4628,-4.4641,-4.465,-4.4662,-4.4709,-4.4706,-4.4733,-4.4742,-4.475,-4.4756,-4.478,-4.4791,-4.4669,-4.4669,-4.4669,0,0,-4.4669,-4.4661,-4.4674,-4.4683,-4.468,-4.4699,-4.465,-4.4672,-4.4685,-4.4641,-4.467,-4.4664,-4.4662,-4.4702,-4.4719,-4.4699,-4.4789,-4.4757,-4.4763,-4.4764,-4.4786,-4.4798,-4.4808,-4.4672,-4.4672,-4.4671,0,0,-4.4748,-4.4744,-4.4776,-4.4774,-4.4771,-4.4756,-4.4764,-4.4754,-4.4747,-4.4777,-4.4743,-4.4759,-4.4782,-4.4782,-4.4785,-4.4863,-4.4837,-4.4867,-4.4917,-4.494,-4.495,-4.4958,-4.4986,-4.4996,-4.4873,-4.4873,-4.4873,0,-4.4796,-4.4822,-4.4795,-4.4819,-4.4824,-4.4783,-4.4815,-4.4815,-4.4816,-4.482,-4.4797,-4.4825,-4.4821,-4.486,-4.4879,-4.4883,-4.489,-4.4868,-4.4951,-4.4959,-4.4966,-4.4992,-4.5002,-4.4877,-4.4877,-4.4876,-4.4876,0,-4.4881,-4.49,-4.4926,-4.4927,-4.4935,-4.4962,-4.4939,-4.495,-4.4931,-4.4919,-4.4949,-4.4942,-4.4951,-4.4959,-4.4941,-4.4995,-4.4983,-4.4956,-4.4916,-4.4982,-4.5006,-4.5015,-4.4882,-4.4881,-4.488,-4.4879,0,0,-4.4999,-4.4984,-4.4994,-4.4994,-4.4987,-4.5001,-4.5026,-4.5034,-4.5044,-4.5046,-4.5066,-4.5087,-4.5062,-4.5065,-4.5046,-4.5067,-4.5129,-4.5037,-4.5037,-4.5054,-4.5188,-4.5207,-4.5219,-4.5111,-4.5113,-4.5114,-4.5188,0,-4.5075,-4.5117,-4.5093,-4.5139,-4.5156,-4.5117,-4.514,-4.5138,-4.5127,-4.5139,-4.5127,-4.5142,-4.5108,-4.511,-4.5129,-4.5117,-4.5155,-4.5112,-4.513,-4.5131,-4.5131,-4.5232,-4.5253,-4.5322,-4.5197,-4.5198,-4.5199,0,-4.5168,-4.5173,-4.5221,-4.521,-4.5216,-4.5236,-4.5241,-4.5254,-4.5251,-4.5241,-4.5245,-4.522,-4.5245,-4.5205,-4.5238,-4.5209,-4.5215,-4.521,-4.5212,-4.5213,-4.5169,-4.5234,-4.5344,-4.5354,-4.5214,-4.5213,-4.5212,0,-4.5249,-4.5267,-4.5298,-4.5299,-4.5287,-4.5302,-4.5298,-4.5292,-4.5298,-4.5303,-4.5307,-4.5314,-4.5319,-4.5325,-4.5303,-4.5277,-4.5339,-4.5298,-4.5331,-4.5332,-4.5346,-4.5345,-4.5458,-4.5351,-4.5351,-4.5351,-4.535,0,-4.5335,-4.5366,-4.5333,-4.5352,-4.5385,-4.5357,-4.539,-4.5382,-4.5377,-4.5394,-4.5361,-4.5378,-4.5348,-4.5362,-4.5345,-4.5374,-4.5377,-4.5369,-4.5365,-4.5372,-4.5373,-4.5375,-4.537,-4.5353,-4.5353,-4.5352,-4.5352,0,-4.543,-4.541,-4.5441,-4.5426,-4.5423,-4.5448,-4.5436,-4.5453,-4.5439,-4.546,-4.5464,-4.5443,-4.5457,-4.5436,-4.5448,-4.5436,-4.5477,-4.5465,-4.5478,-4.5474,-4.5509,-4.5506,-4.5626,-4.564,-4.5525,-4.5526,-4.5527,0,-4.5487,-4.5509,-4.5497,-4.5505,-4.5502,-4.5517,-4.5522,-4.5496,-4.5503,-4.5501,-4.5518,-4.5529,-4.5536,-4.556,-4.5546,-4.5554,-4.5542,-4.5584,-4.5543,-4.555,-4.5542,-4.5541,-4.5542,-4.5592,-4.5593,-4.5594,-4.5595,0,-4.5589,-4.5577,-4.5586,-4.5592,-4.56,-4.5603,-4.5605,-4.5613,-4.5585,-4.5595,-4.5608,-4.5614,-4.5625,-4.5637,-4.5641,-4.5637,-4.5612,-4.5608,-4.5616,-4.5624,-4.563,-4.5627,-4.55,-4.5605,-4.5604,-4.5604,-4.5603,-4.5603,-4.5665,-4.5683,-4.5677,-4.5688,-4.5686,-4.5688,-4.5702,-4.569,-4.5701,-4.5707,-4.5691,-4.5708,-4.5704,-4.5708,-4.5706,-4.5719,-4.5701,-4.5713,-4.5716,-4.5719,-4.5725,-4.5629,-4.572,-4.572,-4.572,-4.5719,-4.5719,0,-4.5765,-4.5759,-4.577,-4.5772,-4.578,-4.5755,-4.5755,-4.5764,-4.5779,-4.5777,-4.5784,-4.58,-4.581,-4.5797,-4.5805,-4.5818,-4.5806,-4.5821,-4.5819,-4.5819,-4.5741,-4.5732,-4.583,-4.583,-4.583,-4.583,-4.583,-4.583,-4.5818,-4.5846,-4.5834,-4.586,-4.5854,-4.587,-4.5872,-4.5873,-4.5871,-4.5889,-4.5897,-4.5888,-4.5881,-4.5889,-4.5897,-4.5893,-4.5897,-4.5916,-4.5908,-4.5835,-4.5824,-4.5814,-4.5806,-4.5917,-4.5917,-4.5984,-4.5985,-4.5985]}]]